FW4679 Weather Reports


time (UTC)temp
C
wind
direction
speed
KPH
gust
KPH
rain 1hr
cm
rain 24hr
cm
rain mn
cm
humidity
%
barometer
mb
20260505074514 17 190 1.6 6.4 0.00 0.00 0.00 52 1010.5
20260505073024 17 198 4.8 9.7 0.00 0.00 0.00 51 1010.3
20260505071517 17 234 8.0 12.9 0.00 0.00 0.00 51 1010.4
20260505070010 17 221 4.8 11.3 0.00 0.00 0.00 51 1010.5
20260505064525 18 213 9.7 19.3 0.00 0.00 0.00 49 1010.4
20260505063009 18 211 9.7 19.3 0.00 0.00 0.00 48 1010.5
20260505061522 18 250 8.0 20.9 0.00 0.00 0.00 48 1010.6
20260505060010 18 210 12.9 19.3 0.00 0.00 0.00 48 1010.6
20260505054506 17 225 8.0 16.1 0.00 0.00 0.00 49 1010.6
20260505053005 17 216 8.0 17.7 0.00 0.00 0.00 49 1010.8
20260505051600 17 226 9.7 16.1 0.00 0.00 0.00 48 1010.8
20260505041559 18 177 6.4 14.5 0.00 0.00 0.00 46 1010.6
20260505040055 18 233 8.0 19.3 0.00 0.00 0.00 46 1010.6
20260505034551 18 216 8.0 16.1 0.00 0.00 0.00 46 1010.6
20260505033053 18 215 8.0 19.3 0.00 0.00 0.00 45 1010.7
20260505031605 18 226 11.3 20.9 0.00 0.00 0.00 45 1010.7
20260505030051 18 211 11.3 19.3 0.00 0.00 0.00 44 1010.7
20260505024549 18 217 9.7 25.7 0.00 0.00 0.00 44 1010.8
20260505023102 19 240 12.9 25.7 0.00 0.00 0.00 43 1010.9
20260505021548 19 205 12.9 24.1 0.00 0.00 0.00 42 1011.0
20260505020047 19 221 11.3 24.1 0.00 0.00 0.00 41 1010.9
20260505014547 19 207 11.3 19.3 0.00 0.00 0.00 40 1010.9
20260505013101 20 195 8.0 19.3 0.00 0.00 0.00 40 1010.7
20260505011546 20 229 8.0 17.7 0.00 0.00 0.00 39 1010.7
20260505010048 20 221 11.3 25.7 0.00 0.00 0.00 39 1010.5
20260505004553 20 216 11.3 22.5 0.00 0.00 0.00 39 1010.5
20260505003044 20 173 8.0 19.3 0.00 0.00 0.00 38 1010.3
20260505001548 21 213 9.7 22.5 0.00 0.00 0.00 37 1010.1
20260505000100 21 192 8.0 22.5 0.00 0.00 0.00 37 1010.1
20260504234542 21 219 12.9 24.1 0.00 0.00 0.00 36 1009.9
20260504233042 21 224 8.0 25.7 0.00 0.00 0.00 35 1009.8
20260504231542 22 244 8.0 24.1 0.00 0.00 0.00 34 1009.9
20260504230100 22 200 12.9 25.7 0.00 0.00 0.00 33 1009.8
20260504224540 22 227 8.0 20.9 0.00 0.00 0.00 33 1009.8
20260504223040 22 214 8.0 19.3 0.00 0.00 0.00 33 1009.8
20260504221550 22 199 16.1 32.2 0.00 0.00 0.00 32 1009.7
20260504220040 22 226 11.3 30.6 0.00 0.00 0.00 32 1009.6
20260504214538 23 231 8.0 29.0 0.00 0.00 0.00 31 1009.6
20260504213043 23 246 14.5 30.6 0.00 0.00 0.00 28 1009.7
20260504211538 22 238 12.9 29.0 0.00 0.00 0.00 32 1009.9
20260504210034 22 273 17.7 25.7 0.00 0.00 0.00 29 1010.0
20260504204534 22 234 8.0 27.4 0.00 0.00 0.00 32 1010.2
20260504203030 22 223 14.5 22.5 0.00 0.00 0.00 33 1010.5
20260504201529 22 232 16.1 32.2 0.00 0.00 0.00 30 1010.6
20260504200027 22 259 20.9 33.8 0.00 0.00 0.00 31 1011.0
20260504194525 22 274 16.1 37.0 0.00 0.00 0.00 32 1011.3
20260504193022 21 268 17.7 37.0 0.00 0.00 0.00 33 1011.3
20260504191524 21 199 16.1 27.4 0.00 0.00 0.00 34 1011.8
20260504190023 21 230 14.5 35.4 0.00 0.00 0.00 33 1011.7
20260504184519 22 214 14.5 25.7 0.00 0.00 0.00 32 1011.8
20260504183016 21 316 19.3 35.4 0.00 0.00 0.00 34 1011.9
20260504181515 21 281 19.3 37.0 0.00 0.00 0.00 34 1012.1
20260504180012 21 279 11.3 29.0 0.00 0.00 0.00 36 1012.2
20260504174511 20 219 20.9 32.2 0.00 0.00 0.00 35 1012.4
20260504173010 20 248 16.1 32.2 0.00 0.00 0.00 36 1012.5
20260504171507 20 213 16.1 33.8 0.00 0.00 0.00 39 1012.7
20260504160105 17 266 12.9 32.2 0.00 0.00 0.00 40 1013.8
20260504110106 8 209 4.8 12.9 0.00 0.00 0.00 57 1015.9
20260504081556 7 242 4.8 9.7 0.00 0.00 0.00 62 1016.1